#timestamp,LO_Frequency,Hit,StdDev 
1619582415.5,286047002.0,N
1619582435.3,286047001.6,N
1619582455.2,286047004.2,N
1619582475.0,286047001.9,N
1619582475.9,286047001.9,N
1619582495.8,286047001.3,N
1619582515.6,286047005.6,Y
1619582535.4,286046999.9,P
1619582555.3,286047002.1,N
1619582575.1,286047002.4,N
1619582595.8,286047000.7,N
1619582615.7,286046998.2,N
1619582635.5,286047000.7,N
1619582655.4,286046999.6,N
1619582675.2,286046996.8,N
1619582695.0,286046999.2,N
1619582695.9,286046999.2,N
1619582715.8,286046996.6,N
1619582735.6,286046999.1,N
1619582755.5,286046998.6,N
1619582775.3,286046998.7,N
1619582795.1,286046996.5,N
1619582815.9,286046999.1,N
1619582835.7,286047002.4,N
1619582855.5,286047002.6,N
1619582875.4,286047000.2,N
1619582895.2,286047002.2,N
1619582915.1,286047004.3,N
1619582916.0,286047004.3,N
1619582935.8,286047003.8,N
1619582955.6,286047001.3,N
1619582975.5,286047002.0,N
1619582995.3,286046999.8,N
1619583015.1,286047000.0,N
1619583035.9,286046999.9,N
1619583055.7,286046998.2,N
1619583075.6,286046999.8,N
1619583095.4,286046999.8,N
1619583115.2,286047001.7,N
1619583135.1,286047001.9,N
1619583136.0,286047001.9,N
1619583155.8,286046999.7,N
1619583175.6,286047002.1,N
1619583195.5,286047001.5,N
1619583215.3,286047000.3,N
1619583235.2,286047001.1,N
1619583255.0,286046998.1,N
1619583255.9,286046998.1,N
1619583275.8,286047001.1,N
1619583295.6,286047002.6,N
1619583315.4,286047000.2,N
1619583335.3,286047000.3,N
1619583355.1,286046998.1,N
1619583375.8,286047001.1,N
1619583395.7,286046998.3,N
1619583415.5,286046996.5,N
1619583435.4,286046999.3,N
1619583455.2,286046999.0,N
1619583475.0,286046997.1,N
1619583475.9,286046997.1,N
1619583495.8,286046996.8,N
1619583515.6,286046996.7,N
1619583535.5,286046997.0,N
1619583555.3,286046998.6,N
1619583575.1,286047001.1,N
1619583595.9,286046999.0,N
1619583615.7,286046998.9,N
1619583635.6,286047001.0,N
1619583655.4,286047002.0,N
1619583675.2,286046999.7,N
1619583695.1,286047003.4,N
1619583696.0,286047003.4,N
1619583715.8,286047004.5,N
1619583735.6,286047002.9,N
1619583755.5,286047003.7,N
1619583775.3,286047002.1,N
1619583795.2,286047002.0,N
1619583815.9,286047002.1,N
1619583835.7,286047002.3,N
1619583855.6,286047000.6,N
1619583875.4,286047000.9,N
1619583895.3,286046998.3,N
1619583915.1,286046999.7,N
1619583916.0,286046999.7,N
1619583935.8,286047002.7,N
1619583955.7,286047000.6,N
1619583975.5,286046998.8,N
1619583995.3,286047000.4,N
1619584015.2,286047004.0,N
1619584035.0,286047004.0,N
1619584035.9,286047004.0,N
1619584055.8,286047002.8,N
1619584075.6,286047002.7,N
1619584095.4,286047002.1,N
1619584115.3,286047001.6,N
1619584135.1,286047000.9,N
1619584155.8,286047002.5,N
1619584175.7,286047002.4,N
1619584195.5,286047002.3,N
1619584215.4,286047002.3,N
1619584235.2,286047000.4,N
1619584255.0,286046998.7,N
1619584255.9,286046998.7,N
1619584275.8,286046998.5,N
1619584295.6,286046999.5,N
1619584315.4,286046996.8,N
1619584335.3,286046997.8,N
1619584355.1,286046996.5,N
1619584375.9,286046997.3,N
1619584395.7,286046997.5,N
1619584415.5,286046996.7,N
1619584435.4,286046998.5,N
1619584455.2,286046996.5,N
1619584475.0,286046998.3,N
1619584476.0,286046998.3,N
1619584495.8,286047001.1,N
1619584515.6,286046999.0,N
1619584535.5,286046998.3,N
1619584555.3,286047000.2,N
1619584575.1,286047000.0,N
1619584595.9,286047000.8,N
1619584615.7,286047001.1,N
1619584635.5,286046998.8,N
1619584655.4,286047000.7,N
1619584675.2,286047000.4,N
1619584695.1,286047000.3,N
1619584696.0,286047000.3,N
1619584715.8,286047000.9,N
1619584735.6,286047001.1,N
1619584755.5,286047000.9,N
1619584775.3,286046999.8,N
1619584795.2,286046999.8,N
1619584815.9,286047000.3,N
1619584835.7,286046999.9,N
1619584855.6,286047002.6,N
1619584875.4,286047002.6,N
1619584895.3,286047001.3,N
1619584915.1,286047002.0,N
1619584916.0,286047002.0,N
1619584935.8,286047002.5,N
1619584955.7,286047001.1,N
1619584975.5,286046998.4,N
1619584995.3,286047001.0,N
1619585015.2,286046998.2,N
1619585035.0,286046998.4,N
1619585035.9,286046998.4,N
1619585055.8,286046999.2,N
1619585075.6,286046999.0,N
1619585095.4,286047000.2,N
1619585115.3,286047002.4,N
1619585135.1,286047002.7,N
1619585155.9,286047000.1,N
1619585175.7,286047001.6,N
1619585195.5,286047001.8,N
1619585215.4,286047002.3,N
1619585235.2,286047001.9,N
1619585255.0,286047002.6,N
1619585255.9,286047002.6,N
1619585275.8,286046999.9,N
1619585295.8,286046998.3,N
1619585315.6,286047000.9,N
1619585335.5,286047000.0,N
1619585355.3,286047000.6,N
1619585375.1,286047001.0,N
1619585395.9,286046999.9,N
1619585415.7,286047001.8,N
1619585435.5,286047001.8,N
1619585455.4,286047001.5,N
1619585475.2,286047003.7,N
1619585495.1,286047002.0,N
1619585496.0,286047002.0,N
1619585515.8,286047001.6,N
1619585535.6,286047003.8,N
1619585555.5,286047003.4,N
1619585575.3,286047004.2,N
1619585595.2,286047004.1,N
1619585615.9,286047004.2,N
1619585635.7,286047003.7,N
1619585655.6,286047004.1,N
1619585675.4,286047006.0,Y
1619585695.3,286047002.0,P
1619585715.1,286047000.3,P
1619585716.0,286047000.3,N
1619585735.8,286046999.9,N
1619585755.7,286047000.3,N
1619585775.5,286046999.1,N
1619585795.3,286046998.9,N
1619585815.2,286046999.6,N
1619585835.0,286047000.9,N
1619585835.9,286047000.9,N
1619585855.8,286046998.2,N
1619585875.6,286046998.5,N
1619585895.4,286046999.5,N
1619585915.3,286046997.0,N
1619585935.1,286046999.5,N
1619585955.9,286046999.1,N
1619585975.7,286047000.7,N
1619585995.5,286047000.0,N
